Regional Weather Roundup
Issued by NWS

Home | Current Version | Previous Version | Graphics & Text | Print | Product List | Glossary On
Versions: 1 2 3 4 5 6 7 8 9 10 11 12 13 14 15 16 17 18 19 20 21 22 23 24 25 26 27 28 29 30 31 32 33 34 35 36 37 38 39 40 41 42 43 44 45 46 47 48 49 50
000
ASUS43 KOAX 302110
RWRNE

WEATHER ROUNDUP FOR NEBRASKA
NATIONAL WEATHER SERVICE OMAHA NE
400 PM CDT WED JUL 30 2014

NOTES: SATELLITE DATA IS BEING USED TO AUGMENT CLOUD COVER ABOVE
       12000 FEET.
       "FAIR" INDICATES FEW OR NO CLOUDS BELOW 12,000 FEET WITH NO
       SIGNIFICANT WEATHER AND/OR OBSTRUCTIONS TO VISIBILITY.

  * THESE STATIONS DO NOT REPORT WEATHER SUCH AS RAIN...SNOW OR FOG.

NEZ001>004-019>022-054>056-302200-
NEBRASKA PANHANDLE

CITY           SKY/WX    TMP DP  RH WIND       PRES   REMARKS
SCOTTSBLUFF    CLOUDY    76  51  41 VRB3      30.26S
ALLIANCE       CLOUDY    77  51  40 SW5       30.23F
CHADRON        PTSUNNY   84  45  25 SW10      30.18F
KIMBALL        CLOUDY    65  58  76 SW13      30.31S
SIDNEY         PTSUNNY   72  57  59 SW15      30.29S
$$

NEZ057>060-069>072-079>082-302200-
SOUTHWEST NEBRASKA

CITY           SKY/WX    TMP DP  RH WIND       PRES   REMARKS
NORTH PLATTE   PTSUNNY   79  53  40 S6        30.18S
IMPERIAL       MOSUNNY   76  54  46 CALM      30.23S
LEXINGTON      PTSUNNY   78  57  48 SE6       30.18S
MCCOOK         MOSUNNY   78  55  44 CALM      30.19F
OGALLALA       PTSUNNY   75  52  44 S5        30.22S
$$

NEZ005>010-023>029-035>040-094-302200-
NORTH CENTRAL NEBRASKA

CITY           SKY/WX    TMP DP  RH WIND       PRES   REMARKS
VALENTINE      MOSUNNY   84  48  28 VRB5      30.16S
AINSWORTH      MOSUNNY   81  49  33 E5        30.17S
BROKEN BOW     MOSUNNY   80  54  40 NW3       30.17S
O`NEILL        PTSUNNY   81  56  42 SE3       30.15F
ORD            MOSUNNY   81  55  40 N5        30.14F
THEDFORD       PTSUNNY   80  51  35 SE5       30.20S
$$

NEZ041-046>049-061>064-073>077-083>087-302200-
SOUTH CENTRAL NEBRASKA

CITY           SKY/WX    TMP DP  RH WIND       PRES   REMARKS
GRAND ISLAND   MOSUNNY   79  54  41 VRB3      30.16S
AURORA         MOSUNNY   79  55  43 NE3       30.15F
HASTINGS       MOSUNNY   79  52  38 E5        30.16F
HEBRON         PTSUNNY   78  48  34 NE8       30.14S
HOLDREGE       MOSUNNY   78  54  42 CALM      30.17S
KEARNEY *      PTSUNNY   79  55  44 E6        30.17S
YORK           MOSUNNY   77  54  44 N7        30.16S
$$

NEZ011>018-030>034-042>045-302200-
NORTHEAST NEBRASKA

CITY           SKY/WX    TMP DP  RH WIND       PRES   REMARKS
NORFOLK        PTSUNNY   80  52  37 W5        30.13F
ALBION         MOSUNNY   77  55  46 E3        30.15S
BLAIR          MOSUNNY   78  52  39 N3        30.12F
COLUMBUS *     PTSUNNY   79  54  41 CALM      30.14F
FREMONT        MOSUNNY   79  50  35 N6        30.13S
TEKAMAH        MOSUNNY   81  52  36 NE6       30.11F
WAYNE          MOSUNNY   79  55  43 NW3       30.14S
$$

NEZ050>053-065>068-078-088>093-302200-
SOUTHEAST NEBRASKA

CITY           SKY/WX    TMP DP  RH WIND       PRES   REMARKS
LINCOLN        MOSUNNY   82  50  32 VRB7      30.13F
OMAHA EPPLEY   MOSUNNY   82  51  34 VRB6      30.11F
BEATRICE       PTSUNNY   79  54  42 NE6       30.12F
FALLS CITY     PTSUNNY   81  54  39 NE5       30.10F
NEBRASKA CITY  MOSUNNY   79  49  35 CALM      30.12S
PLATTSMOUTH    MOSUNNY   79  49  34 CALM      30.12F
$$

NEZ044-045-051>053-067-302200-
OMAHA AREA

CITY           SKY/WX    TMP DP  RH WIND       PRES   REMARKS
OMAHA EPPLEY   MOSUNNY   82  51  34 VRB6      30.11F
BLAIR          MOSUNNY   78  52  39 N3        30.12F
FREMONT        MOSUNNY   79  50  35 N6        30.13S
MILLARD        MOSUNNY   80  52  37 W5        30.11S
OFFUTT AFB     SUNNY     81  52  36 VRB5      30.11F
PLATTSMOUTH    MOSUNNY   79  49  34 CALM      30.12F
WAHOO          FAIR      80  53  39 NW5       30.13S
$$


USA.gov is the U.S. government's official web portal to all federal, state and local government web resources and services.